Regional Weather Roundup
Issued by NWS

Home | Current Version | Previous Version | Graphics & Text | Print | Product List | Glossary Off
Versions: 1 2 3 4 5 6 7 8 9 10 11 12 13 14 15 16 17 18 19 20 21 22 23 24 25 26 27 28 29 30 31 32 33 34 35 36 37 38 39 40 41 42 43 44 45 46 47 48 49 50

202
ASUS43 KBIS 080010
RWRND

NORTH DAKOTA REGIONAL WEATHER ROUNDUP
NATIONAL WEATHER SERVICE BISMARCK ND
600 PM CST SUN FEB 07 2016

NOTE: "FAIR" INDICATES FEW OR NO CLOUDS BELOW 12,000 FEET WITH NO
SIGNIFICANT WEATHER AND/OR OBSTRUCTIONS TO VISIBILITY.


NDZ001>003-009>011-017-080100-
NORTHWEST NORTH DAKOTA

CITY           SKY/WX    TMP DP  RH WIND       PRES   REMARKS
WILLISTON      CLEAR     34  20  56 NW20G36   30.23R
6HR MIN TEMP:  33; 6HR MAX TEMP:  37;

MINOT          CLOUDY    33  18  53 NW25G36   30.09R
MINOT AFB      MOCLDY    30  19  65 NW32G39   30.08R WCI  14
$$

NDZ018>021-031>035-040>046-080100-
SOUTHWEST NORTH DAKOTA

CITY           SKY/WX    TMP DP  RH WIND       PRES   REMARKS
BISMARCK       PTCLDY    36  17  46 NW33G45   30.07R
6HR MIN TEMP:  33; 6HR MAX TEMP:  38; 6HR PCP: TRACE;

DICKINSON      PTCLDY    30  14  51 NW28G45   30.16R WCI  15
GARRISON         N/A     32  19  58 NW29G40   30.08R WCI  18
6HR MIN TEMP:  27; 6HR MAX TEMP:  34;

HETTINGER ARPT MOCLDY    33  13  43 NW33G45   30.18R WCI  18
$$

NDZ004>008-012>016-024-026-027-054-080100-
NORTHEAST NORTH DAKOTA

CITY           SKY/WX    TMP DP  RH WIND       PRES   REMARKS
GRAND FORKS    SNOW      16  10  77 N31G41    29.95R VSB 1/4 WCI  -4
GRND FRKS AFB  FLURRIES  16  10  79 N17G30    29.96R WCI   0
DEVILS LAKE    FLURRIES  19  13  77 NW31G44   29.98R WCI   0
$$

NDZ022-023-025-028>030-036>039-047>053-080100-
SOUTHEAST NORTH DAKOTA

CITY           SKY/WX    TMP DP  RH WIND       PRES   REMARKS
FARGO          LGT SNOW  19  13  77 N30G41    29.93R WCI   0
6HR MIN TEMP:  19; 6HR MAX TEMP:  33; 6HR PCP: TRACE;

JAMESTOWN      LGT SNOW  22  16  78 NW30G46   29.95R WCI   4
$$





USA.gov is the U.S. government's official web portal to all federal, state and local government web resources and services.